Year,Month,Day,Hour,Minute,Value (Times are PST for temperature in C)
2005,09,24,00,00,9.70
2005,09,24,00,01,9.50
2005,09,24,00,02,9.40
2005,09,24,00,03,9.40
2005,09,24,00,04,9.30
2005,09,24,00,05,9.30
2005,09,24,00,06,9.30
2005,09,24,00,07,9.20
2005,09,24,00,08,9.20
2005,09,24,00,09,9.20
2005,09,24,00,10,9.20
2005,09,24,00,11,9.20
2005,09,24,00,12,9.20
2005,09,24,00,13,9.20
2005,09,24,00,14,9.20
2005,09,24,00,15,9.20
2005,09,24,00,16,9.20
2005,09,24,00,17,9.20
2005,09,24,00,18,9.30
2005,09,24,00,19,9.50
2005,09,24,00,20,9.60
2005,09,24,00,21,9.70
2005,09,24,00,22,9.70
2005,09,24,00,23,9.80
2005,09,24,00,24,9.90
2005,09,24,00,25,9.90
2005,09,24,00,26,10.00
2005,09,24,00,27,10.10
2005,09,24,00,28,10.10
2005,09,24,00,29,10.20
2005,09,24,00,30,10.20
2005,09,24,00,31,10.30
2005,09,24,00,32,10.30
2005,09,24,00,33,10.40
2005,09,24,00,34,10.40
2005,09,24,00,35,10.40
2005,09,24,00,36,10.40
2005,09,24,00,37,10.40
2005,09,24,00,38,10.40
2005,09,24,00,39,10.40
2005,09,24,00,40,10.40
2005,09,24,00,41,10.40
2005,09,24,00,42,10.30
2005,09,24,00,43,10.30
2005,09,24,00,44,10.20
2005,09,24,00,45,10.20
2005,09,24,00,46,10.10
2005,09,24,00,47,10.20
2005,09,24,00,48,10.20
2005,09,24,00,49,10.20
2005,09,24,00,50,10.30
2005,09,24,00,51,10.40
2005,09,24,00,52,10.40
2005,09,24,00,53,10.40
2005,09,24,00,54,10.60
2005,09,24,00,55,10.80
2005,09,24,00,56,10.90
2005,09,24,00,57,10.90
2005,09,24,00,58,10.90
2005,09,24,00,59,10.90
2005,09,24,01,00,10.90
2005,09,24,01,01,10.90
2005,09,24,01,02,10.80
2005,09,24,01,03,10.70
2005,09,24,01,04,10.70
2005,09,24,01,05,10.60
2005,09,24,01,06,10.60
2005,09,24,01,07,10.50
2005,09,24,01,08,10.40
2005,09,24,01,09,10.40
2005,09,24,01,10,10.30
2005,09,24,01,11,10.20
2005,09,24,01,12,10.10
2005,09,24,01,13,10.00
2005,09,24,01,14,9.90
2005,09,24,01,15,9.90
2005,09,24,01,16,9.90
2005,09,24,01,17,9.80
2005,09,24,01,18,9.80
2005,09,24,01,19,9.80
2005,09,24,01,20,9.80
2005,09,24,01,21,9.80
2005,09,24,01,22,9.80
2005,09,24,01,23,9.90
2005,09,24,01,24,10.00
2005,09,24,01,25,10.10
2005,09,24,01,26,10.10
2005,09,24,01,27,10.10
2005,09,24,01,28,10.10
2005,09,24,01,29,10.10
2005,09,24,01,30,10.10
2005,09,24,01,31,10.10
2005,09,24,01,32,10.10
2005,09,24,01,33,10.00
2005,09,24,01,34,9.90
2005,09,24,01,35,9.90
2005,09,24,01,36,9.90
2005,09,24,01,37,9.90
2005,09,24,01,38,9.90
2005,09,24,01,39,10.00
2005,09,24,01,40,10.30
2005,09,24,01,41,10.40
2005,09,24,01,42,10.40
2005,09,24,01,43,10.60
2005,09,24,01,44,10.60
2005,09,24,01,45,10.60
2005,09,24,01,46,10.70
2005,09,24,01,47,10.80
2005,09,24,01,48,10.80
2005,09,24,01,49,10.90
2005,09,24,01,50,10.90
2005,09,24,01,51,10.90
2005,09,24,01,52,10.90
2005,09,24,01,53,10.90
2005,09,24,01,54,10.90
2005,09,24,01,55,10.90
2005,09,24,01,56,10.90
2005,09,24,01,57,10.90
2005,09,24,01,58,10.80
2005,09,24,01,59,10.80
2005,09,24,02,00,10.80
2005,09,24,02,01,10.80
2005,09,24,02,02,10.80
2005,09,24,02,03,10.80
2005,09,24,02,04,10.70
2005,09,24,02,05,10.60
2005,09,24,02,06,10.50
2005,09,24,02,07,10.40
2005,09,24,02,08,10.30
2005,09,24,02,09,10.10
2005,09,24,02,10,10.00
2005,09,24,02,11,9.90
2005,09,24,02,12,9.80
2005,09,24,02,13,9.70
2005,09,24,02,14,9.70
2005,09,24,02,15,9.70
2005,09,24,02,16,9.70
2005,09,24,02,17,9.50
2005,09,24,02,18,9.40
2005,09,24,02,19,9.30
2005,09,24,02,20,9.30
2005,09,24,02,21,9.20
2005,09,24,02,22,9.20
2005,09,24,02,23,9.10
2005,09,24,02,24,9.10
2005,09,24,02,25,9.00
2005,09,24,02,26,9.00
2005,09,24,02,27,8.90
2005,09,24,02,28,8.90
2005,09,24,02,29,8.80
2005,09,24,02,30,8.80
2005,09,24,02,31,8.70
2005,09,24,02,32,8.70
2005,09,24,02,33,8.70
2005,09,24,02,34,8.60
2005,09,24,02,35,8.60
2005,09,24,02,36,8.50
2005,09,24,02,37,8.50
2005,09,24,02,38,8.50
2005,09,24,02,39,8.50
2005,09,24,02,40,8.40
2005,09,24,02,41,8.40
2005,09,24,02,42,8.30
2005,09,24,02,43,8.30
2005,09,24,02,44,8.30
2005,09,24,02,45,8.40
2005,09,24,02,46,8.40
2005,09,24,02,47,8.40
2005,09,24,02,48,8.40
2005,09,24,02,49,8.50
2005,09,24,02,50,8.50
2005,09,24,02,51,8.50
2005,09,24,02,52,8.50
2005,09,24,02,53,8.50
2005,09,24,02,54,8.50
2005,09,24,02,55,8.50
2005,09,24,02,56,8.60
2005,09,24,02,57,8.60
2005,09,24,02,58,8.60
2005,09,24,02,59,8.60
2005,09,24,03,00,8.60
2005,09,24,03,01,8.60
2005,09,24,03,02,8.60
2005,09,24,03,03,8.60
2005,09,24,03,04,8.50
2005,09,24,03,05,8.50
2005,09,24,03,06,8.40
2005,09,24,03,07,8.40
2005,09,24,03,08,8.30
2005,09,24,03,09,8.20
2005,09,24,03,10,8.20
2005,09,24,03,11,8.20
2005,09,24,03,12,8.10
2005,09,24,03,13,8.10
2005,09,24,03,14,8.10
2005,09,24,03,15,8.10
2005,09,24,03,16,7.90
2005,09,24,03,17,7.90
2005,09,24,03,18,7.80
2005,09,24,03,19,7.80
2005,09,24,03,20,7.80
2005,09,24,03,21,7.80
2005,09,24,03,22,7.70
2005,09,24,03,23,7.70
2005,09,24,03,24,7.60
2005,09,24,03,25,7.60
2005,09,24,03,26,7.50
2005,09,24,03,27,7.50
2005,09,24,03,28,7.50
2005,09,24,03,29,7.40
2005,09,24,03,30,7.40
2005,09,24,03,31,7.30
2005,09,24,03,32,7.30
2005,09,24,03,33,7.30
2005,09,24,03,34,7.20
2005,09,24,03,35,7.20
2005,09,24,03,36,7.10
2005,09,24,03,37,7.10
2005,09,24,03,38,7.10
2005,09,24,03,39,7.00
2005,09,24,03,40,7.00
2005,09,24,03,41,7.00
2005,09,24,03,42,6.90
2005,09,24,03,43,6.90
2005,09,24,03,44,6.90
2005,09,24,03,45,6.90
2005,09,24,03,46,6.80
2005,09,24,03,47,6.80
2005,09,24,03,48,6.80
2005,09,24,03,49,6.80
2005,09,24,03,50,6.80
2005,09,24,03,51,6.70
2005,09,24,03,52,6.70
2005,09,24,03,53,6.70
2005,09,24,03,54,6.60
2005,09,24,03,55,6.60
2005,09,24,03,56,6.60
2005,09,24,03,57,6.60
2005,09,24,03,58,6.60
2005,09,24,03,59,6.60
2005,09,24,04,00,6.50
2005,09,24,04,01,6.40
2005,09,24,04,02,6.40
2005,09,24,04,03,6.40
2005,09,24,04,04,6.40
2005,09,24,04,05,6.40
2005,09,24,04,06,6.40
2005,09,24,04,07,6.40
2005,09,24,04,08,6.40
2005,09,24,04,09,6.40
2005,09,24,04,10,6.40
2005,09,24,04,11,6.40
2005,09,24,04,12,6.40
2005,09,24,04,13,6.40
2005,09,24,04,14,6.50
2005,09,24,04,15,6.60
2005,09,24,04,16,6.60
2005,09,24,04,17,6.80
2005,09,24,04,18,6.80
2005,09,24,04,19,6.80
2005,09,24,04,20,6.80
2005,09,24,04,21,6.90
2005,09,24,04,22,6.90
2005,09,24,04,23,7.00
2005,09,24,04,24,7.00
2005,09,24,04,25,7.00
2005,09,24,04,26,7.00
2005,09,24,04,27,7.00
2005,09,24,04,28,6.90
2005,09,24,04,29,6.90
2005,09,24,04,30,6.80
2005,09,24,04,31,6.80
2005,09,24,04,32,6.80
2005,09,24,04,33,6.80
2005,09,24,04,34,6.70
2005,09,24,04,35,6.70
2005,09,24,04,36,6.60
2005,09,24,04,37,6.60
2005,09,24,04,38,6.60
2005,09,24,04,39,6.60
2005,09,24,04,40,6.60
2005,09,24,04,41,6.60
2005,09,24,04,42,6.60
2005,09,24,04,43,6.70
2005,09,24,04,44,6.70
2005,09,24,04,45,6.70
2005,09,24,04,46,6.80
2005,09,24,04,47,6.80
2005,09,24,04,48,6.90
2005,09,24,04,49,7.00
2005,09,24,04,50,7.10
2005,09,24,04,51,7.20
2005,09,24,04,52,7.30
2005,09,24,04,53,7.40
2005,09,24,04,54,7.50
2005,09,24,04,55,7.60
2005,09,24,04,56,7.70
2005,09,24,04,57,7.80
2005,09,24,04,58,7.90
2005,09,24,04,59,7.90
2005,09,24,05,00,8.00
2005,09,24,05,01,8.00
2005,09,24,05,02,8.10
2005,09,24,05,03,8.10
2005,09,24,05,04,8.20
2005,09,24,05,05,8.20
2005,09,24,05,06,8.20
2005,09,24,05,07,8.00
2005,09,24,05,08,8.00
2005,09,24,05,09,7.90
2005,09,24,05,10,7.80
2005,09,24,05,11,7.80
2005,09,24,05,12,7.70
2005,09,24,05,13,7.60
2005,09,24,05,14,7.40
2005,09,24,05,15,7.30
2005,09,24,05,16,7.20
2005,09,24,05,17,7.10
2005,09,24,05,18,7.00
2005,09,24,05,19,6.90
2005,09,24,05,20,6.80
2005,09,24,05,21,6.80
2005,09,24,05,22,6.80
2005,09,24,05,23,6.70
2005,09,24,05,24,6.60
2005,09,24,05,25,6.60
2005,09,24,05,26,6.60
2005,09,24,05,27,6.50
2005,09,24,05,28,6.40
2005,09,24,05,29,6.40
2005,09,24,05,30,6.40
2005,09,24,05,31,6.30
2005,09,24,05,32,6.30
2005,09,24,05,33,6.30
2005,09,24,05,34,6.30
2005,09,24,05,35,6.20
2005,09,24,05,36,6.20
2005,09,24,05,37,6.20
2005,09,24,05,38,6.20
2005,09,24,05,39,6.20
2005,09,24,05,40,6.10
2005,09,24,05,41,6.10
2005,09,24,05,42,6.10
2005,09,24,05,43,6.00
2005,09,24,05,44,6.00
2005,09,24,05,45,6.00
2005,09,24,05,46,6.00
2005,09,24,05,47,6.00
2005,09,24,05,48,6.00
2005,09,24,05,49,6.00
2005,09,24,05,50,6.00
2005,09,24,05,51,6.00
2005,09,24,05,52,6.00
2005,09,24,05,53,6.00
2005,09,24,05,54,6.00
2005,09,24,05,55,6.20
2005,09,24,05,56,6.20
2005,09,24,05,57,6.20
2005,09,24,05,58,6.20
2005,09,24,05,59,6.20
2005,09,24,06,00,6.20
2005,09,24,06,01,6.20
2005,09,24,06,02,6.20
2005,09,24,06,03,6.20
2005,09,24,06,04,6.20
2005,09,24,06,05,6.20
2005,09,24,06,06,6.20
2005,09,24,06,07,6.20
2005,09,24,06,08,6.20
2005,09,24,06,09,6.20
2005,09,24,06,10,6.30
2005,09,24,06,11,6.30
2005,09,24,06,12,6.30
2005,09,24,06,13,6.30
2005,09,24,06,14,6.30
2005,09,24,06,15,6.40
2005,09,24,06,16,6.40
2005,09,24,06,17,6.40
2005,09,24,06,18,6.40
2005,09,24,06,19,6.40
2005,09,24,06,20,6.50
2005,09,24,06,21,6.60
2005,09,24,06,22,6.60
2005,09,24,06,23,6.60
2005,09,24,06,24,6.70
2005,09,24,06,25,6.70
2005,09,24,06,26,6.80
2005,09,24,06,27,6.80
2005,09,24,06,28,6.80
2005,09,24,06,29,6.80
2005,09,24,06,30,6.80
2005,09,24,06,31,6.80
2005,09,24,06,32,6.80
2005,09,24,06,33,6.80
2005,09,24,06,34,6.80
2005,09,24,06,35,6.80
2005,09,24,06,36,6.80
2005,09,24,06,37,6.80
2005,09,24,06,38,6.80
2005,09,24,06,39,6.80
2005,09,24,06,40,6.80
2005,09,24,06,41,6.80
2005,09,24,06,42,6.80
2005,09,24,06,43,6.80
2005,09,24,06,44,6.90
2005,09,24,06,45,7.00
2005,09,24,06,46,7.00
2005,09,24,06,47,7.10
2005,09,24,06,48,7.10
2005,09,24,06,49,7.20
2005,09,24,06,50,7.20
2005,09,24,06,51,7.20
2005,09,24,06,52,7.20
2005,09,24,06,53,7.30
2005,09,24,06,54,7.50
2005,09,24,06,55,7.60
2005,09,24,06,56,7.60
2005,09,24,06,57,7.70
2005,09,24,06,58,7.80
2005,09,24,06,59,7.80
2005,09,24,07,00,7.90
2005,09,24,07,01,8.00
2005,09,24,07,02,8.10
2005,09,24,07,03,8.10
2005,09,24,07,04,8.20
2005,09,24,07,05,8.20
2005,09,24,07,06,8.30
2005,09,24,07,07,8.30
2005,09,24,07,08,8.30
2005,09,24,07,09,8.40
2005,09,24,07,10,8.40
2005,09,24,07,11,8.40
2005,09,24,07,12,8.40
2005,09,24,07,13,8.40
2005,09,24,07,14,8.30
2005,09,24,07,15,8.30
2005,09,24,07,16,8.30
2005,09,24,07,17,8.20
2005,09,24,07,18,8.10
2005,09,24,07,19,8.00
2005,09,24,07,20,7.80
2005,09,24,07,21,7.70
2005,09,24,07,22,7.60
2005,09,24,07,23,7.50
2005,09,24,07,24,7.30
2005,09,24,07,25,7.20
2005,09,24,07,26,7.10
2005,09,24,07,27,7.00
2005,09,24,07,28,6.90
2005,09,24,07,29,6.80
2005,09,24,07,30,6.80
2005,09,24,07,31,6.70
2005,09,24,07,32,6.70
2005,09,24,07,33,6.70
2005,09,24,07,34,6.60
2005,09,24,07,35,6.60
2005,09,24,07,36,6.60
2005,09,24,07,37,6.60
2005,09,24,07,38,6.60
2005,09,24,07,39,6.60
2005,09,24,07,40,6.50
2005,09,24,07,41,6.40
2005,09,24,07,42,6.40
2005,09,24,07,43,6.40
2005,09,24,07,44,6.40
2005,09,24,07,45,6.40
2005,09,24,07,46,6.50
2005,09,24,07,47,6.60
2005,09,24,07,48,6.60
2005,09,24,07,49,6.70
2005,09,24,07,50,6.80
2005,09,24,07,51,6.90
2005,09,24,07,52,7.00
2005,09,24,07,53,7.10
2005,09,24,07,54,7.30
2005,09,24,07,55,7.30
2005,09,24,07,56,7.40
2005,09,24,07,57,7.50
2005,09,24,07,58,7.60
2005,09,24,07,59,7.60
2005,09,24,08,00,7.80
2005,09,24,08,01,7.90
2005,09,24,08,02,8.00
2005,09,24,08,03,8.10
2005,09,24,08,04,8.20
2005,09,24,08,05,8.30
2005,09,24,08,06,8.40
2005,09,24,08,07,8.50
2005,09,24,08,08,8.60
2005,09,24,08,09,8.70
2005,09,24,08,10,8.70
2005,09,24,08,11,8.70
2005,09,24,08,12,8.70
2005,09,24,08,13,8.50
2005,09,24,08,14,8.40
2005,09,24,08,15,8.20
2005,09,24,08,16,8.00
2005,09,24,08,17,7.80
2005,09,24,08,18,7.70
2005,09,24,08,19,7.50
2005,09,24,08,20,7.40
2005,09,24,08,21,7.30
2005,09,24,08,22,7.30
2005,09,24,08,23,7.30
2005,09,24,08,24,7.20
2005,09,24,08,25,7.20
2005,09,24,08,26,7.20
2005,09,24,08,27,7.30
2005,09,24,08,28,7.30
2005,09,24,08,29,7.30
2005,09,24,08,30,7.30
2005,09,24,08,31,7.30
2005,09,24,08,32,7.30
2005,09,24,08,33,7.30
2005,09,24,08,34,7.50
2005,09,24,08,35,7.60
2005,09,24,08,36,7.70
2005,09,24,08,37,7.80
2005,09,24,08,38,7.90
2005,09,24,08,39,8.00
2005,09,24,08,40,8.10
2005,09,24,08,41,8.20
2005,09,24,08,42,8.20
2005,09,24,08,43,8.30
2005,09,24,08,44,8.40
2005,09,24,08,45,8.50
2005,09,24,08,46,8.60
2005,09,24,08,47,8.70
2005,09,24,08,48,8.90
2005,09,24,08,49,8.90
2005,09,24,08,50,9.00
2005,09,24,08,51,9.10
2005,09,24,08,52,9.20
2005,09,24,08,53,9.30
2005,09,24,08,54,9.40
2005,09,24,08,55,9.50
2005,09,24,08,56,9.60
2005,09,24,08,57,9.70
2005,09,24,08,58,9.80
2005,09,24,08,59,9.90
2005,09,24,09,00,9.90
2005,09,24,09,01,10.00
2005,09,24,09,02,10.10
2005,09,24,09,03,10.20
2005,09,24,09,04,10.30
2005,09,24,09,05,10.30
2005,09,24,09,06,10.40
2005,09,24,09,07,10.50
2005,09,24,09,08,10.60
2005,09,24,09,09,10.70
2005,09,24,09,10,10.80
2005,09,24,09,11,10.90
2005,09,24,09,12,10.90
2005,09,24,09,13,11.00
2005,09,24,09,14,11.10
2005,09,24,09,15,11.10
2005,09,24,09,16,11.10
2005,09,24,09,17,11.20
2005,09,24,09,18,11.30
2005,09,24,09,19,11.40
2005,09,24,09,20,11.40
2005,09,24,09,21,11.50
2005,09,24,09,22,11.60
2005,09,24,09,23,11.70
2005,09,24,09,24,11.80
2005,09,24,09,25,11.90
2005,09,24,09,26,12.10
2005,09,24,09,27,12.10
2005,09,24,09,28,12.30
2005,09,24,09,29,12.30
2005,09,24,09,30,12.30
2005,09,24,09,31,12.50
2005,09,24,09,32,12.60
2005,09,24,09,33,12.60
2005,09,24,09,34,12.70
2005,09,24,09,35,12.80
2005,09,24,09,36,12.80
2005,09,24,09,37,12.80
2005,09,24,09,38,12.80
2005,09,24,09,39,12.80
2005,09,24,09,40,12.80
2005,09,24,09,41,12.80
2005,09,24,09,42,12.80
2005,09,24,09,43,12.80
2005,09,24,09,44,12.80
2005,09,24,09,45,12.90
2005,09,24,09,46,12.90
2005,09,24,09,47,12.90
2005,09,24,09,48,12.90
2005,09,24,09,49,13.00
2005,09,24,09,50,13.00
2005,09,24,09,51,13.00
2005,09,24,09,52,13.00
2005,09,24,09,53,13.10
2005,09,24,09,54,13.10
2005,09,24,09,55,13.10
2005,09,24,09,56,13.10
2005,09,24,09,57,13.20
2005,09,24,09,58,13.20
2005,09,24,09,59,13.20
2005,09,24,10,00,13.20
2005,09,24,10,01,13.30
2005,09,24,10,02,13.30
2005,09,24,10,03,13.30
2005,09,24,10,04,13.30
2005,09,24,10,05,13.30
2005,09,24,10,06,13.30
2005,09,24,10,07,13.30
2005,09,24,10,08,13.40
2005,09,24,10,09,13.40
2005,09,24,10,10,13.40
2005,09,24,10,11,13.40
2005,09,24,10,12,13.40
2005,09,24,10,13,13.40
2005,09,24,10,14,13.40
2005,09,24,10,15,13.50
2005,09,24,10,16,13.50
2005,09,24,10,17,13.60
2005,09,24,10,18,13.60
2005,09,24,10,19,13.60
2005,09,24,10,20,13.60
2005,09,24,10,21,13.70
2005,09,24,10,22,13.70
2005,09,24,10,23,13.70
2005,09,24,10,24,13.70
2005,09,24,10,25,13.60
2005,09,24,10,26,13.60
2005,09,24,10,27,13.60
2005,09,24,10,28,13.60
2005,09,24,10,29,13.60
2005,09,24,10,30,13.60
2005,09,24,10,31,13.70
2005,09,24,10,32,13.70
2005,09,24,10,33,13.70
2005,09,24,10,34,13.70
2005,09,24,10,35,13.70
2005,09,24,10,36,13.70
2005,09,24,10,37,13.70
2005,09,24,10,38,13.70
2005,09,24,10,39,13.70
2005,09,24,10,40,13.70
2005,09,24,10,41,13.80
2005,09,24,10,42,13.80
2005,09,24,10,43,13.80
2005,09,24,10,44,13.90
2005,09,24,10,45,14.00
2005,09,24,10,46,14.00
2005,09,24,10,47,14.00
2005,09,24,10,48,14.10
2005,09,24,10,49,14.10
2005,09,24,10,50,14.10
2005,09,24,10,51,14.20
2005,09,24,10,52,14.20
2005,09,24,10,53,14.20
2005,09,24,10,54,14.20
2005,09,24,10,55,14.20
2005,09,24,10,56,14.20
2005,09,24,10,57,14.30
2005,09,24,10,58,14.40
2005,09,24,10,59,14.40
2005,09,24,11,00,14.40
2005,09,24,11,01,14.40
2005,09,24,11,02,14.40
2005,09,24,11,03,14.50
2005,09,24,11,04,14.50
2005,09,24,11,05,14.50
2005,09,24,11,06,14.60
2005,09,24,11,07,14.60
2005,09,24,11,08,14.70
2005,09,24,11,09,14.60
2005,09,24,11,10,14.60
2005,09,24,11,11,14.60
2005,09,24,11,12,14.60
2005,09,24,11,13,14.60
2005,09,24,11,14,14.60
2005,09,24,11,15,14.70
2005,09,24,11,16,14.80
2005,09,24,11,17,14.80
2005,09,24,11,18,14.80
2005,09,24,11,19,14.80
2005,09,24,11,20,14.80
2005,09,24,11,21,14.90
2005,09,24,11,22,14.90
2005,09,24,11,23,14.90
2005,09,24,11,24,14.90
2005,09,24,11,25,15.00
2005,09,24,11,26,14.90
2005,09,24,11,27,14.90
2005,09,24,11,28,14.90
2005,09,24,11,29,15.00
2005,09,24,11,30,15.00
2005,09,24,11,31,15.10
2005,09,24,11,32,15.10
2005,09,24,11,33,15.20
2005,09,24,11,34,15.20
2005,09,24,11,35,15.10
2005,09,24,11,36,15.10
2005,09,24,11,37,15.10
2005,09,24,11,38,15.20
2005,09,24,11,39,15.20
2005,09,24,11,40,15.20
2005,09,24,11,41,15.20
2005,09,24,11,42,15.20
2005,09,24,11,43,15.30
2005,09,24,11,44,15.40
2005,09,24,11,45,15.50
2005,09,24,11,46,15.60
2005,09,24,11,47,15.60
2005,09,24,11,48,15.70
2005,09,24,11,49,15.70
2005,09,24,11,50,15.60
2005,09,24,11,51,15.60
2005,09,24,11,52,15.60
2005,09,24,11,53,15.60
2005,09,24,11,54,15.60
2005,09,24,11,55,15.60
2005,09,24,11,56,15.60
2005,09,24,11,57,15.70
2005,09,24,11,58,15.80
2005,09,24,11,59,15.80
2005,09,24,12,00,15.80
2005,09,24,12,01,15.80
2005,09,24,12,02,15.80
2005,09,24,12,03,15.80
2005,09,24,12,04,15.80
2005,09,24,12,05,15.80
2005,09,24,12,06,15.80
2005,09,24,12,07,15.80
2005,09,24,12,08,15.80
2005,09,24,12,09,15.80
2005,09,24,12,10,15.90
2005,09,24,12,11,15.90
2005,09,24,12,12,15.90
2005,09,24,12,13,15.90
2005,09,24,12,14,15.90
2005,09,24,12,15,16.00
2005,09,24,12,16,16.10
2005,09,24,12,17,16.10
2005,09,24,12,18,16.20
2005,09,24,12,19,16.30
2005,09,24,12,20,16.40
2005,09,24,12,21,16.40
2005,09,24,12,22,16.40
2005,09,24,12,23,16.40
2005,09,24,12,24,16.30
2005,09,24,12,25,16.20
2005,09,24,12,26,16.10
2005,09,24,12,27,16.00
2005,09,24,12,28,15.90
2005,09,24,12,29,16.00
2005,09,24,12,30,16.10
2005,09,24,12,31,16.10
2005,09,24,12,32,16.10
2005,09,24,12,33,16.10
2005,09,24,12,34,16.20
2005,09,24,12,35,16.20
2005,09,24,12,36,16.20
2005,09,24,12,37,16.20
2005,09,24,12,38,16.20
2005,09,24,12,39,16.10
2005,09,24,12,40,16.10
2005,09,24,12,41,16.10
2005,09,24,12,42,16.20
2005,09,24,12,43,16.30
2005,09,24,12,44,16.40
2005,09,24,12,45,16.40
2005,09,24,12,46,16.30
2005,09,24,12,47,16.30
2005,09,24,12,48,16.30
2005,09,24,12,49,16.40
2005,09,24,12,50,16.40
2005,09,24,12,51,16.50
2005,09,24,12,52,16.60
2005,09,24,12,53,16.60
2005,09,24,12,54,16.60
2005,09,24,12,55,16.50
2005,09,24,12,56,16.40
2005,09,24,12,57,16.60
2005,09,24,12,58,16.60
2005,09,24,12,59,16.60
2005,09,24,13,00,16.60
2005,09,24,13,01,16.60
2005,09,24,13,02,16.60
2005,09,24,13,03,16.70
2005,09,24,13,04,16.70
2005,09,24,13,05,16.80
2005,09,24,13,06,16.80
2005,09,24,13,07,16.80
2005,09,24,13,08,16.80
2005,09,24,13,09,16.80
2005,09,24,13,10,16.80
2005,09,24,13,11,16.90
2005,09,24,13,12,16.90
2005,09,24,13,13,16.90
2005,09,24,13,14,16.90
2005,09,24,13,15,16.90
2005,09,24,13,16,16.80
2005,09,24,13,17,16.90
2005,09,24,13,18,16.90
2005,09,24,13,19,16.90
2005,09,24,13,20,16.90
2005,09,24,13,21,16.80
2005,09,24,13,22,16.80
2005,09,24,13,23,16.70
2005,09,24,13,24,16.70
2005,09,24,13,25,16.70
2005,09,24,13,26,16.70
2005,09,24,13,27,16.60
2005,09,24,13,28,16.50
2005,09,24,13,29,16.40
2005,09,24,13,30,16.40
2005,09,24,13,31,16.30
2005,09,24,13,32,16.20
2005,09,24,13,33,15.90
2005,09,24,13,34,15.80
2005,09,24,13,35,15.80
2005,09,24,13,36,15.60
2005,09,24,13,37,15.60
2005,09,24,13,38,15.50
2005,09,24,13,39,15.40
2005,09,24,13,40,15.30
2005,09,24,13,41,15.40
2005,09,24,13,42,15.40
2005,09,24,13,43,15.40
2005,09,24,13,44,15.40
2005,09,24,13,45,15.40
2005,09,24,13,46,15.30
2005,09,24,13,47,15.30
2005,09,24,13,48,15.30
2005,09,24,13,49,15.30
2005,09,24,13,50,15.30
2005,09,24,13,51,15.30
2005,09,24,13,52,15.30
2005,09,24,13,53,15.30
2005,09,24,13,54,15.30
2005,09,24,13,55,15.30
2005,09,24,13,56,15.30
2005,09,24,13,57,15.30
2005,09,24,13,58,15.40
2005,09,24,13,59,15.50
2005,09,24,14,00,15.60
2005,09,24,14,01,15.70
2005,09,24,14,02,15.60
2005,09,24,14,03,15.50
2005,09,24,14,04,15.30
2005,09,24,14,05,15.30
2005,09,24,14,06,15.40
2005,09,24,14,07,15.50
2005,09,24,14,08,15.50
2005,09,24,14,09,15.40
2005,09,24,14,10,15.30
2005,09,24,14,11,15.30
2005,09,24,14,12,15.30
2005,09,24,14,13,15.30
2005,09,24,14,14,15.30
2005,09,24,14,15,15.30
2005,09,24,14,16,15.30
2005,09,24,14,17,15.30
2005,09,24,14,18,15.20
2005,09,24,14,19,15.20
2005,09,24,14,20,15.20
2005,09,24,14,21,15.30
2005,09,24,14,22,15.40
2005,09,24,14,23,15.50
2005,09,24,14,24,15.50
2005,09,24,14,25,15.50
2005,09,24,14,26,15.50
2005,09,24,14,27,15.50
2005,09,24,14,28,15.60
2005,09,24,14,29,15.60
2005,09,24,14,30,15.60
2005,09,24,14,31,15.80
2005,09,24,14,32,15.90
2005,09,24,14,33,16.00
2005,09,24,14,34,16.10
2005,09,24,14,35,16.10
2005,09,24,14,36,16.20
2005,09,24,14,37,16.20
2005,09,24,14,38,16.30
2005,09,24,14,39,16.40
2005,09,24,14,40,16.30
2005,09,24,14,41,16.30
2005,09,24,14,42,16.40
2005,09,24,14,43,16.40
2005,09,24,14,44,16.40
2005,09,24,14,45,16.40
2005,09,24,14,46,16.40
2005,09,24,14,47,16.30
2005,09,24,14,48,16.30
2005,09,24,14,49,16.20
2005,09,24,14,50,16.20
2005,09,24,14,51,16.20
2005,09,24,14,52,16.20
2005,09,24,14,53,16.20
2005,09,24,14,54,16.10
2005,09,24,14,55,15.90
2005,09,24,14,56,15.90
2005,09,24,14,57,15.90
2005,09,24,14,58,15.80
2005,09,24,14,59,15.80
2005,09,24,15,00,15.80
2005,09,24,15,01,15.80
2005,09,24,15,02,15.90
2005,09,24,15,03,16.10
2005,09,24,15,04,16.20
2005,09,24,15,05,16.30
2005,09,24,15,06,16.40
2005,09,24,15,07,16.40
2005,09,24,15,08,16.30
2005,09,24,15,09,16.20
2005,09,24,15,10,16.10
2005,09,24,15,11,16.20
2005,09,24,15,12,16.10
2005,09,24,15,13,16.10
2005,09,24,15,14,16.10
2005,09,24,15,15,16.10
2005,09,24,15,16,16.10
2005,09,24,15,17,16.10
2005,09,24,15,18,16.10
2005,09,24,15,19,16.10
2005,09,24,15,20,16.20
2005,09,24,15,21,16.30
2005,09,24,15,22,16.30
2005,09,24,15,23,16.30
2005,09,24,15,24,16.30
2005,09,24,15,25,16.30
2005,09,24,15,26,16.40
2005,09,24,15,27,16.40
2005,09,24,15,28,16.40
2005,09,24,15,29,16.40
2005,09,24,15,30,16.40
2005,09,24,15,31,16.40
2005,09,24,15,32,16.40
2005,09,24,15,33,16.40
2005,09,24,15,34,16.50
2005,09,24,15,35,16.60
2005,09,24,15,36,16.70
2005,09,24,15,37,16.70
2005,09,24,15,38,16.70
2005,09,24,15,39,16.80
2005,09,24,15,40,16.80
2005,09,24,15,41,16.80
2005,09,24,15,42,16.80
2005,09,24,15,43,16.70
2005,09,24,15,44,16.70
2005,09,24,15,45,16.70
2005,09,24,15,46,16.70
2005,09,24,15,47,16.70
2005,09,24,15,48,16.80
2005,09,24,15,49,16.90
2005,09,24,15,50,17.00
2005,09,24,15,51,17.00
2005,09,24,15,52,17.00
2005,09,24,15,53,17.00
2005,09,24,15,54,17.10
2005,09,24,15,55,17.20
2005,09,24,15,56,17.30
2005,09,24,15,57,17.30
2005,09,24,15,58,17.40
2005,09,24,15,59,17.50
2005,09,24,16,00,17.50
2005,09,24,16,01,17.50
2005,09,24,16,02,17.50
2005,09,24,16,03,17.50
2005,09,24,16,04,17.50
2005,09,24,16,05,17.60
2005,09,24,16,06,17.80
2005,09,24,16,07,17.90
2005,09,24,16,08,17.90
2005,09,24,16,09,18.00
2005,09,24,16,10,18.10
2005,09,24,16,11,18.10
2005,09,24,16,12,18.20
2005,09,24,16,13,18.20
2005,09,24,16,14,18.20
2005,09,24,16,15,18.20
2005,09,24,16,16,18.20
2005,09,24,16,17,18.10
2005,09,24,16,18,18.10
2005,09,24,16,19,18.10
2005,09,24,16,20,18.00
2005,09,24,16,21,17.90
2005,09,24,16,22,17.90
2005,09,24,16,23,17.90
2005,09,24,16,24,17.90
2005,09,24,16,25,17.90
2005,09,24,16,26,17.90
2005,09,24,16,27,17.90
2005,09,24,16,28,18.00
2005,09,24,16,29,18.10
2005,09,24,16,30,18.10
2005,09,24,16,31,18.20
2005,09,24,16,32,18.20
2005,09,24,16,33,18.20
2005,09,24,16,34,18.20
2005,09,24,16,35,18.20
2005,09,24,16,36,18.20
2005,09,24,16,37,18.20
2005,09,24,16,38,18.20
2005,09,24,16,39,18.30
2005,09,24,16,40,18.30
2005,09,24,16,41,18.20
2005,09,24,16,42,18.20
2005,09,24,16,43,18.20
2005,09,24,16,44,18.30
2005,09,24,16,45,18.30
2005,09,24,16,46,18.20
2005,09,24,16,47,18.20
2005,09,24,16,48,18.20
2005,09,24,16,49,18.20
2005,09,24,16,50,18.20
2005,09,24,16,51,18.10
2005,09,24,16,52,18.10
2005,09,24,16,53,18.10
2005,09,24,16,54,18.10
2005,09,24,16,55,18.10
2005,09,24,16,56,18.20
2005,09,24,16,57,18.20
2005,09,24,16,58,18.10
2005,09,24,16,59,18.10
2005,09,24,17,00,18.10
2005,09,24,17,01,18.10
2005,09,24,17,02,18.10
2005,09,24,17,03,18.10
2005,09,24,17,04,18.10
2005,09,24,17,05,18.10
2005,09,24,17,06,18.20
2005,09,24,17,07,18.20
2005,09,24,17,08,18.20
2005,09,24,17,09,18.20
2005,09,24,17,10,18.20
2005,09,24,17,11,18.20
2005,09,24,17,12,18.20
2005,09,24,17,13,18.20
2005,09,24,17,14,18.20
2005,09,24,17,15,18.10
2005,09,24,17,16,18.00
2005,09,24,17,17,17.90
2005,09,24,17,18,17.90
2005,09,24,17,19,17.90
2005,09,24,17,20,18.00
2005,09,24,17,21,18.10
2005,09,24,17,22,18.10
2005,09,24,17,23,18.10
2005,09,24,17,24,18.10
2005,09,24,17,25,18.10
2005,09,24,17,26,18.20
2005,09,24,17,27,18.20
2005,09,24,17,28,18.20
2005,09,24,17,29,18.20
2005,09,24,17,30,18.20
2005,09,24,17,31,18.20
2005,09,24,17,32,18.20
2005,09,24,17,33,18.20
2005,09,24,17,34,18.30
2005,09,24,17,35,18.30
2005,09,24,17,36,18.30
2005,09,24,17,37,18.30
2005,09,24,17,38,18.30
2005,09,24,17,39,18.30